Regional Weather Roundup
Issued by NWS Sterling, VA

Home | Current Version | Previous Version | Graphics & Text | Print | Product List | Glossary On
Versions: 1 2 3 4 5 6 7 8 9 10 11 12 13 14 15 16 17 18 19 20 21 22 23 24 25 26 27 28 29 30 31 32 33 34 35 36 37 38 39 40 41 42 43 44 45 46 47 48 49 50
000
ASUS41 KLWX 291210
RWRLWX

REGIONAL WEATHER ROUNDUP
NATIONAL WEATHER SERVICE BALTIMORE MD/WASHINGTON DC
800 AM EDT FRI AUG 29 2014

Note: "FAIR" indicates few or no clouds below 12,000 feet
with no significant weather and/or obstructions to visibility.
 TC=TEMPERATURE CELSIUS

 * =Non NWS site. Station does not report precipitation (e.g. rain,
    snow, etc.), thunder, or fog.

DCZ001-MDZ009-015-VAZ040>042-051-053>054-291300-
WASHINGTON METRO
  /KDAA//-FT BELVOIR

CITY           SKY/WX    TMP DP  RH WIND       PRES   REMARKS
WASHINGTON NAT MOSUNNY   68  50  52 NE7       30.19R
DULLES         MOSUNNY   61  55  81 CALM      30.20R
ANDREWS AFB    SUNNY     62  54  74 N6        30.18S
QUANTICO       MOSUNNY   65  54  67 N5        30.20R
COLLEGE PARK*  SUNNY     61  55  82 CALM      30.19R
LEESBURG*      SUNNY     59  55  88 CALM      30.21S
MANASSAS*      SUNNY     61  59  94 CALM      30.20R
GAITHERSBURG*  SUNNY     57  52  82 CALM      30.24R

$$

MDZ006>007-011-014-291300-
BALTIMORE METRO

CITY           SKY/WX    TMP DP  RH WIND       PRES   REMARKS
BWI AIRPORT    MOSUNNY   62  51  67 CALM      30.19R
MD SCIENCE CTR   N/A     66  50  56 MISG      30.19R
MARTIN STATE   MOSUNNY   61  55  82 CALM      30.20R
ANNAPOLIS      SUNNY     66  55  67 N7        30.18R
FORT MEADE*    SUNNY     54  52  94 CALM      30.21S

$$

MDZ012-015-019>023-291300-
MARYLAND EASTERN SHORE

CITY           SKY/WX    TMP DP  RH WIND       PRES   REMARKS
OCEAN CITY     SUNNY     66  59  78 N3        30.15R
SALISBURY      SUNNY     64  55  72 N5        30.16R
BAY BRIDGE AP*   N/A     66  50  55 NE6       30.19R
CAMBRIDGE*     SUNNY     63  52  67 N6        30.17R
EASTON*        MOSUNNY  N/A N/A N/A CALM      30.22R

$$

MDZ017>025-291300-
SOUTHERN MARYLAND

CITY           SKY/WX    TMP DP  RH WIND       PRES   REMARKS
PATUXENT RIVER MOSUNNY   66  53  63 NE8       30.18R
ST INIGOES     SUNNY     67  54  63 NE7       30.16R
LEONARDTOWN*   SUNNY     64  54  68 CALM      30.19R

$$

MDZ003>005-291300-
NORTH CENTRAL MARYLAND

CITY           SKY/WX    TMP DP  RH WIND       PRES   REMARKS
FREDERICK*     SUNNY    N/A N/A N/A CALM      30.23
HAGERSTOWN APT SUNNY     60  51  72 N3        30.21R
WESTMINSTER*   SUNNY     57  52  82 N3        30.20S

$$

MDZ501>502-291300-
WESTERN MARYLAND

CITY           SKY/WX    TMP DP  RH WIND       PRES   REMARKS
OAKLAND*       SUNNY     52 N/A N/A SE9       30.22S
CUMBERLAND*    SUNNY     57  54  88 CALM      30.26R

$$

VAZ025>031-291300-
SHENANDOAH VALLEY

CITY           SKY/WX    TMP DP  RH WIND       PRES   REMARKS
WINCHESTER*    SUNNY     57  54  88 CALM      30.21R
STAUNTON*      SUNNY     61  56  83 CALM      30.23R

$$

WVZ021-048>050-054>055-291300-
EASTERN WEST VIRGINIA PANHANDLE

CITY           SKY/WX    TMP DP  RH WIND       PRES   REMARKS
MARTINSBURG    SUNNY     57  51  80 CALM      30.21R
PETERSBURG*    NOT AVBL

$$

VAZ036>039-050-291300-
CENTRAL FOOTHILLS

CITY           SKY/WX    TMP DP  RH WIND       PRES   REMARKS
CHARLOTTESVILL SUNNY     63  53  70 N5        30.19R
ORANGE*        SUNNY     61  54  77 NW3       30.21S

$$

VAZ055>057-291300-
NORTH AND CENTRAL PIEDMONT

CITY           SKY/WX    TMP DP  RH WIND       PRES   REMARKS
FREDERICKSBRG* SUNNY     64  57  78 CALM      30.18R
STAFFORD*      SUNNY     62  59  90 N3        30.23R

$$

NCZ024-NYZ072-PAZ021-071-VAZ022-071-291300-
OTHER REGIONAL OBSERVATIONS

CITY           SKY/WX    TMP DP  RH WIND       PRES   REMARKS
NEW YORK CITY  MOSUNNY   64  50  60 CALM      30.19R
PHILADELPHIA   PTSUNNY   64  51  62 N6        30.18R
PITTSBURGH     PTSUNNY   53  51  93 E3        30.19R
ROANOKE        PTSUNNY   67  57  70 CALM      30.22R
RICHMOND       PTSUNNY   67  58  72 NE8       30.16R
RALEIGH        CLOUDY    73  69  87 NE7       30.12R FOG

$$

ANZ530>537-291300-
MARINE OBSERVATIONS

STATION/POSITION TIME  TEMP    WIND        PRES
                       AIR SEA DIR/SP/G
                 (UTC) (F)     (DEG/KT/KT) (MB)
THOMAS PT LIGHT  1200   67 77   50/ 12/ 13 1022.8R
BALT KEY BRIDGE  1200   71     360/  8/  9 1021.9S
COVE POINT       1200   67      40/  9/ 11 1021.6R
LEWISETTA        1200   71 78   50/  6/ 11 1021.3R
SOLOMONS ISLAND  1200      80                N/A
PINEY POINT      1200           70/  6/  9   N/A

$$



USA.gov is the U.S. government's official web portal to all federal, state and local government web resources and services.